Data for 07/07/2017

Time Sea-Level Adjusted Pressure Absolute Pressure Temperature Relative Humidity Dew Point   
(mb) (inHg) (mb) (inHg) (C) (F) (%) (C) (F)
00:05 1026 30.3 855 25.25 20.8 69.5 36 5.5 41.9
00:10 1026 30.3 856 25.28 20.7 69.2 36 5.2 41.4
00:15 1026 30.3 856 25.28 20.6 69 36 5.2 41.4
00:20 1026 30.3 856 25.28 20.5 68.9 36 5.1 41.1
00:25 1026 30.3 856 25.28 20.4 68.6 37 5.4 41.8
00:30 1026 30.3 856 25.28 20.1 68.2 37 5.1 41.2
00:35 1026 30.3 856 25.28 20.1 68.1 39 5.7 42.3
00:40 1026 30.3 856 25.28 19.5 67 42 6.5 43.6
00:45 1027 30.33 856 25.28 19 66.1 42 6.1 42.9
00:50 1027 30.33 856 25.28 19 66.2 42 6.1 42.9
00:55 1027 30.33 856 25.28 19.1 66.3 41 5.8 42.4
01:00 1027 30.33 856 25.28 19.5 67 39 5.4 41.8
01:05 1027 30.33 856 25.28 19.8 67.6 39 5.7 42.3
01:10 1027 30.33 856 25.28 19.9 67.7 37 4.9 40.8
01:15 1027 30.33 856 25.28 20.3 68.5 36 4.7 40.5
01:20 1027 30.33 856 25.28 19.9 67.8 38 5.3 41.5
01:25 1027 30.33 856 25.28 19.8 67.6 39 5.7 42.3
01:30 1027 30.33 856 25.28 19.2 66.6 40 5.4 41.7
01:35 1027 30.33 856 25.28 19.5 67 38 4.8 40.7
01:40 1027 30.33 856 25.28 20 68.1 37 5 41
01:45 1027 30.33 856 25.28 20.3 68.6 36 5.1 41.2
01:50 1027 30.33 856 25.28 19.9 67.7 39 5.8 42.4
01:55 1026 30.3 856 25.28 19.2 66.5 41 5.9 42.6
02:00 1027 30.33 856 25.28 18.6 65.5 44 6.2 43.1
02:05 1026 30.3 856 25.28 18.1 64.6 43 5.5 42
02:10 1026 30.3 856 25.28 18.5 65.3 43 5.8 42.5
02:15 1026 30.3 856 25.28 18.6 65.4 42 5.7 42.2
02:20 1026 30.3 856 25.28 18.8 65.8 42 5.6 42.1
02:25 1026 30.3 856 25.28 18.8 65.8 42 5.9 42.6
02:30 1026 30.3 856 25.28 18.6 65.5 42 5.7 42.2
02:35 1026 30.3 856 25.28 18.6 65.4 42 5.7 42.3
02:40 1026 30.3 856 25.28 18.6 65.4 42 5.5 41.9
02:45 1026 30.3 856 25.28 18.8 65.9 41 5.6 42.1
02:50 1026 30.3 856 25.28 18.9 65.9 41 5.6 42.1
02:55 1026 30.3 856 25.28 18.8 65.8 42 5.9 42.5
03:00 1026 30.3 856 25.28 19.1 66.4 39 5 41
03:05 1026 30.3 856 25.28 19.9 67.8 38 5.1 41.3
03:10 1026 30.3 856 25.28 19.8 67.7 38 5.4 41.7
03:15 1026 30.3 856 25.28 19.7 67.4 39 5.4 41.7
03:20 1026 30.3 856 25.28 19.5 67.1 41 6 42.7
03:25 1026 30.3 856 25.28 19.2 66.5 40 5.4 41.8
03:30 1026 30.3 855 25.25 19.1 66.3 42 6.1 42.9
03:35 1026 30.3 855 25.25 18.9 66 42 5.8 42.5
03:40 1026 30.3 855 25.25 18.6 65.5 43 5.9 42.7
03:45 1026 30.3 855 25.25 18.5 65.4 43 5.9 42.6
03:50 1026 30.3 855 25.25 18.6 65.4 43 5.9 42.6
03:55 1026 30.3 855 25.25 18.5 65.3 42 5.6 42.1
04:00 1026 30.3 855 25.25 18.8 65.9 41 5.6 42
04:05 1026 30.3 855 25.25 18.9 66 41 5.5 42
04:10 1026 30.3 856 25.28 19 66.3 41 5.6 42.1
04:15 1026 30.3 855 25.25 18.8 65.9 40 5.2 41.4
04:20 1026 30.3 855 25.25 18.9 66 42 5.7 42.3
04:25 1026 30.3 855 25.25 18.5 65.3 43 5.8 42.5
04:30 1026 30.3 856 25.28 18.4 65.1 43 5.6 42.1
04:35 1026 30.3 856 25.28 18.4 65 44 6.2 43.1
04:40 1026 30.3 856 25.28 17.9 64.3 46 6.2 43.1
04:45 1026 30.3 856 25.28 17.9 64.2 45 5.9 42.6
04:50 1026 30.3 856 25.28 18 64.4 44 5.8 42.5
04:55 1026 30.3 856 25.28 17.9 64.2 45 5.8 42.4
05:00 1026 30.3 856 25.28 17.8 64 45 5.7 42.3
05:05 1026 30.3 856 25.28 17.8 64 45 5.7 42.3
05:10 1026 30.3 856 25.28 17.7 63.8 46 5.9 42.7
05:15 1026 30.3 856 25.28 17.4 63.4 46 5.9 42.6
05:20 1026 30.3 856 25.28 17.5 63.5 45 5.7 42.3
05:25 1026 30.3 856 25.28 17.3 63.2 46 5.8 42.5
05:30 1027 30.33 856 25.28 17.2 62.9 45 5.3 41.6
05:35 1027 30.33 856 25.28 17.3 63.1 45 5.3 41.6
05:40 1027 30.33 856 25.28 17.2 63 45 5.4 41.8
05:45 1027 30.33 856 25.28 16.8 62.3 47 5.4 41.8
05:50 1027 30.33 856 25.28 16.8 62.2 46 5.2 41.3
05:55 1027 30.33 856 25.28 17.2 62.9 45 5.3 41.5
06:00 1027 30.33 856 25.28 16.9 62.5 46 5.4 41.8
06:05 1026 30.3 856 25.28 16.6 61.9 48 5.7 42.2
06:10 1027 30.33 856 25.28 16.5 61.7 48 5.7 42.2
06:15 1027 30.33 856 25.28 16.5 61.8 49 5.8 42.4
06:20 1027 30.33 856 25.28 16.5 61.7 49 5.8 42.4
06:25 1027 30.33 856 25.28 16.5 61.8 48 5.6 42.1
06:30 1027 30.33 856 25.28 16.6 61.9 47 5.3 41.6
06:35 1027 30.33 856 25.28 16.8 62.2 46 5.3 41.6
06:40 1027 30.33 856 25.28 16.9 62.4 46 5.5 41.8
06:45 1027 30.33 856 25.28 17.1 62.7 47 5.6 42.2
06:50 1027 30.33 856 25.28 17.3 63.1 47 6.1 43
06:55 1027 30.33 856 25.28 17.3 63.1 46 5.7 42.3
07:00 1027 30.33 856 25.28 17.5 63.5 50 7.1 44.7
07:05 1027 30.33 856 25.28 18 64.3 45 6 42.9
07:10 1027 30.33 856 25.28 18.2 64.8 44 5.9 42.7
07:15 1027 30.33 856 25.28 18.3 65 47 7 44.7
07:20 1027 30.33 856 25.28 18.5 65.3 45 6.4 43.4
07:25 1027 30.33 856 25.28 18.5 65.3 45 6.5 43.7
07:30 1027 30.33 856 25.28 18.7 65.7 47 7.3 45.2
07:35 1027 30.33 856 25.28 18.9 66 44 6.7 44
07:40 1027 30.33 856 25.28 19.1 66.4 45 7 44.7
07:45 1027 30.33 856 25.28 19.4 66.9 45 7.4 45.3
07:50 1027 30.33 856 25.28 19.8 67.6 43 6.9 44.5
07:55 1027 30.33 856 25.28 20.4 68.6 42 7.2 45
08:00 1027 30.33 856 25.28 20.7 69.2 42 7.4 45.4
08:05 1027 30.33 856 25.28 20.5 68.9 43 7.7 45.9
08:10 1027 30.33 856 25.28 20.8 69.4 40 7 44.6
08:15 1027 30.33 857 25.31 20.9 69.6 43 8.1 46.5
08:20 1027 30.33 857 25.31 20.8 69.4 42 7.7 45.8
08:25 1027 30.33 857 25.31 21.1 70 39 6.7 44.1
08:30 1027 30.33 857 25.31 21.6 70.9 36 6.2 43.2
08:35 1027 30.33 857 25.31 22.3 72.1 36 6.7 44.1
08:40 1028 30.36 857 25.31 22.7 72.9 36 7.2 44.9
08:45 1028 30.36 857 25.31 23.3 74 36 7.6 45.7
08:50 1028 30.36 857 25.31 23.2 73.8 36 7.5 45.6
08:55 1028 30.36 857 25.31 23 73.3 36 7.4 45.3
09:00 1028 30.36 857 25.31 22.9 73.3 36 7.3 45.2
09:05 1028 30.36 857 25.31 23.2 73.7 35 7.1 44.8
09:10 1028 30.36 857 25.31 23 73.5 34 6.6 44
09:15 1028 30.36 857 25.31 23.6 74.4 34 6.8 44.3
09:20 1028 30.36 857 25.31 23.2 73.8 34 6.5 43.8
09:25 1028 30.36 857 25.31 23.2 73.8 34 6.7 44
09:30 1028 30.36 857 25.31 23.3 73.9 35 7.3 45.1
09:35 1028 30.36 857 25.31 23.4 74.2 35 7.1 44.8
09:40 1028 30.36 857 25.31 23.5 74.2 37 8.3 46.9
09:45 1028 30.36 857 25.31 23.8 74.8 35 7.8 46
09:50 1028 30.36 857 25.31 24 75.2 34 7.6 45.7
09:55 1028 30.36 857 25.31 24.3 75.8 34 7.8 46.1
10:00 1028 30.36 857 25.31 24.7 76.5 32 7.3 45.2
10:05 1028 30.36 857 25.31 25.1 77.2 33 7.8 46.1
10:10 1028 30.36 857 25.31 24.8 76.6 32 7.2 45
10:15 1028 30.36 857 25.31 25.1 77.1 35 8.8 47.9
10:20 1028 30.36 857 25.31 24.9 76.8 34 8.2 46.7
10:25 1028 30.36 857 25.31 24.5 76.1 35 8.3 47
10:30 1027 30.33 857 25.31 24.9 76.7 32 7.2 45
10:35 1027 30.33 857 25.31 25.9 78.6 32 8.3 46.9
10:40 1027 30.33 857 25.31 25.7 78.3 34 8.8 47.9
10:45 1027 30.33 857 25.31 24.9 76.8 33 7.8 46.1
10:50 1027 30.33 857 25.31 24.6 76.3 31 6.7 44
10:55 1027 30.33 857 25.31 25.1 77.2 30 6.5 43.6
11:00 1027 30.33 856 25.28 26 78.8 30 7.3 45.2
11:05 1027 30.33 856 25.28 26.9 80.4 27 6.7 44.1
11:10 1027 30.33 856 25.28 27.7 81.8 25 6.4 43.6
11:15 1027 30.33 856 25.28 27.8 82.1 26 6.8 44.3
11:20 1027 30.33 856 25.28 28.2 82.7 25 6.6 43.9
11:25 1027 30.33 856 25.28 28.2 82.7 27 7.5 45.6
11:30 1027 30.33 856 25.28 27.6 81.7 26 6.5 43.7
11:35 1027 30.33 856 25.28 28.1 82.6 24 5.8 42.5
11:40 1027 30.33 856 25.28 28.7 83.6 25 7.2 45
11:45 1027 30.33 856 25.28 28.5 83.3 26 7.2 45
11:50 1027 30.33 856 25.28 27.8 82.1 27 7.4 45.3
11:55 1027 30.33 856 25.28 28 82.3 26 6.9 44.4
12:00 1027 30.33 856 25.28 28.4 83.1 25 7.1 44.7
12:05 1027 30.33 856 25.28 29.3 84.7 24 6.9 44.4
12:10 1027 30.33 856 25.28 29.5 85.1 23 6.8 44.3
12:15 1027 30.33 856 25.28 29.4 84.8 25 7.8 46.1
12:20 1027 30.33 856 25.28 28.8 83.9 25 7.1 44.7
12:25 1027 30.33 856 25.28 29.5 85.2 22 6.1 43
12:30 1027 30.33 856 25.28 29.7 85.5 22 6.1 42.9
12:35 1026 30.3 856 25.28 29.1 84.3 23 6.2 43.2
12:40 1026 30.3 856 25.28 29.3 84.7 22 5.5 42
12:45 1026 30.3 856 25.28 30.1 86.1 22 6.3 43.4
12:50 1026 30.3 856 25.28 29.7 85.5 24 7.2 44.9
12:55 1026 30.3 856 25.28 29.4 85 24 7.2 45
13:00 1026 30.3 855 25.25 29.9 85.9 22 6.1 43
13:05 1026 30.3 855 25.25 31.1 88.1 21 6.3 43.3
13:10 1026 30.3 855 25.25 30.9 87.6 22 6.9 44.5
13:15 1026 30.3 855 25.25 30.8 87.5 23 7.8 46
13:20 1026 30.3 855 25.25 30.7 87.3 24 8 46.5
13:25 1026 30.3 855 25.25 30.6 87.1 23 7.7 45.8
13:30 1026 30.3 855 25.25 30.4 86.7 23 7.4 45.3
13:35 1026 30.3 855 25.25 30.2 86.4 25 8.2 46.8
13:40 1026 30.3 855 25.25 29.5 85.1 24 7.1 44.8
13:45 1026 30.3 855 25.25 29.5 85 24 6.9 44.5
13:50 1026 30.3 855 25.25 30.1 86.2 23 7.2 45
13:55 1026 30.3 855 25.25 30.1 86.1 24 7.3 45.2
14:00 1026 30.3 855 25.25 31 87.7 22 6.9 44.4
14:05 1026 30.3 855 25.25 30.3 86.5 23 6.9 44.4
14:10 1026 30.3 855 25.25 30.8 87.4 23 7.5 45.4
14:15 1026 30.3 855 25.25 31.5 88.7 21 6.7 44
14:20 1026 30.3 855 25.25 32.1 89.8 21 7.6 45.8
14:25 1025 30.27 855 25.25 32.6 90.6 20 6.8 44.2
14:30 1025 30.27 855 25.25 32.6 90.6 19 6.6 43.9
14:35 1025 30.27 855 25.25 31.2 88.1 22 7.6 45.7
14:40 1025 30.27 854 25.22 30.4 86.7 22 6.4 43.6
14:45 1025 30.27 854 25.22 31.4 88.6 22 7.4 45.3
14:50 1025 30.27 854 25.22 31.5 88.8 21 7.1 44.8
14:55 1025 30.27 854 25.22 32 89.6 21 7.4 45.3
15:00 1025 30.27 854 25.22 32.3 90.2 21 7.3 45.1
15:05 1025 30.27 854 25.22 31.9 89.5 22 7.9 46.2
15:10 1025 30.27 854 25.22 31.9 89.4 20 6.2 43.2
15:15 1025 30.27 854 25.22 32.3 90.2 20 7 44.6
15:20 1025 30.27 854 25.22 32.8 91 18 5.9 42.6
15:25 1025 30.27 854 25.22 33.1 91.5 19 6.8 44.2
15:30 1025 30.27 854 25.22 33.6 92.5 18 6.3 43.3
15:35 1025 30.27 854 25.22 32.3 90.1 20 6.7 44
15:40 1025 30.27 854 25.22 31.2 88.1 18 4.2 39.6
15:45 1024 30.24 854 25.22 32.8 91 15 3.6 38.5
15:50 1024 30.24 854 25.22 32.9 91.3 16 4.1 39.5
15:55 1025 30.27 854 25.22 32.3 90.1 18 5.1 41.2
16:00 1024 30.24 854 25.22 32.9 91.2 15 3.7 38.7
16:05 1024 30.24 854 25.22 33.6 92.5 15 3.9 38.9
16:10 1024 30.24 854 25.22 33.4 92.1 15 3.8 38.8
16:15 1024 30.24 854 25.22 32.9 91.3 15 3.4 38.1
16:20 1024 30.24 853 25.19 32.8 91.1 15 3.2 37.8
16:25 1024 30.24 853 25.19 32.7 90.8 15 3.4 38.2
16:30 1024 30.24 853 25.19 32 89.7 15 3 37.3
16:35 1024 30.24 853 25.19 32.1 89.8 15 2.5 36.6
16:40 1024 30.24 853 25.19 33 91.5 14 2.7 36.8
16:45 1024 30.24 853 25.19 33 91.4 14 2.6 36.7
16:50 1024 30.24 853 25.19 32.5 90.5 15 3.2 37.8
16:55 1024 30.24 853 25.19 32.7 90.8 17 5.2 41.4
17:00 1024 30.24 853 25.19 32.5 90.6 17 4.8 40.6
17:05 1024 30.24 853 25.19 32.3 90.1 18 5.3 41.5
17:10 1024 30.24 853 25.19 32 89.6 17 4 39.2
17:15 1024 30.24 853 25.19 32.1 89.8 18 4.9 40.8
17:20 1024 30.24 853 25.19 32.2 89.9 17 4.3 39.7
17:25 1024 30.24 853 25.19 31.9 89.4 18 4.7 40.4
17:30 1024 30.24 853 25.19 31.7 89.1 18 4.7 40.5
17:35 1024 30.24 853 25.19 31.8 89.3 18 4.7 40.5
17:40 1024 30.24 853 25.19 31.7 89.1 18 4.8 40.6
17:45 1024 30.24 853 25.19 31.9 89.5 18 5.4 41.7
17:50 1024 30.24 853 25.19 31.6 88.9 18 4.6 40.4
17:55 1024 30.24 853 25.19 31.4 88.6 18 4.6 40.4
18:00 1024 30.24 853 25.19 31.3 88.4 18 4.4 39.9
18:05 1024 30.24 853 25.19 31.5 88.7 18 4.4 39.8
18:10 1024 30.24 853 25.19 31.5 88.8 19 5.1 41.2
18:15 1024 30.24 853 25.19 31.4 88.5 18 4.5 40.1
18:20 1024 30.24 853 25.19 31.6 88.9 18 4.9 40.8
18:25 1024 30.24 853 25.19 31.4 88.4 19 5.1 41.1
18:30 1024 30.24 853 25.19 31.1 88.1 19 4.9 40.9
18:35 1024 30.24 853 25.19 30.4 86.7 21 5.7 42.3
18:40 1024 30.24 853 25.19 29.3 84.7 22 5.4 41.7
18:45 1024 30.24 853 25.19 28.9 84 22 5.3 41.6
18:50 1024 30.24 853 25.19 28.8 83.8 22 5 41
18:55 1024 30.24 853 25.19 28.6 83.4 22 5.3 41.6
19:00 1024 30.24 853 25.19 28.4 83.2 22 5.2 41.4
19:05 1024 30.24 853 25.19 28.3 83 23 5.5 41.8
19:10 1024 30.24 853 25.19 28.2 82.8 22 5.1 41.2
19:15 1024 30.24 853 25.19 28.2 82.7 23 5.3 41.5
19:20 1024 30.24 853 25.19 28.1 82.6 23 5.4 41.7
19:25 1024 30.24 853 25.19 28 82.3 24 5.6 42.1
19:30 1024 30.24 853 25.19 27.8 82.1 24 6 42.7
19:35 1024 30.24 853 25.19 27.7 81.8 24 5.6 42.1
19:40 1024 30.24 853 25.19 27.5 81.5 25 6.1 43
19:45 1024 30.24 853 25.19 27.4 81.2 25 5.9 42.7
19:50 1024 30.24 853 25.19 27.2 80.9 25 5.6 42.2
19:55 1024 30.24 853 25.19 27 80.6 25 5.7 42.3
20:00 1024 30.24 853 25.19 26.8 80.3 26 6.1 42.9
20:05 1024 30.24 853 25.19 26.8 80.2 26 6 42.7
20:10 1024 30.24 853 25.19 26.6 79.9 27 6.2 43.1
20:15 1024 30.24 853 25.19 26.4 79.5 26 5.9 42.5
20:20 1024 30.24 853 25.19 26.3 79.3 26 5.8 42.4
20:25 1024 30.24 853 25.19 26.2 79.2 26 5.7 42.2
20:30 1024 30.24 853 25.19 26.1 79 27 5.7 42.3
20:35 1024 30.24 853 25.19 26 78.8 27 5.8 42.5
20:40 1024 30.24 853 25.19 25.9 78.6 27 6 42.8
20:45 1024 30.24 853 25.19 25.7 78.3 28 6.2 43.1
20:50 1024 30.24 853 25.19 25.5 77.9 28 6.1 43
20:55 1024 30.24 853 25.19 25.4 77.7 28 6.1 42.9
21:00 1024 30.24 853 25.19 25.3 77.5 28 5.9 42.7
21:05 1024 30.24 853 25.19 25.3 77.6 28 5.7 42.3
21:10 1024 30.24 853 25.19 25.3 77.6 28 5.7 42.2
21:15 1024 30.24 853 25.19 25.2 77.4 28 5.7 42.2
21:20 1024 30.24 853 25.19 25.2 77.3 28 5.5 42
21:25 1024 30.24 853 25.19 25.2 77.4 28 5.7 42.3
21:30 1024 30.24 853 25.19 25.1 77.3 28 5.6 42.1
21:35 1024 30.24 853 25.19 25.1 77.2 28 5.7 42.3
21:40 1024 30.24 853 25.19 24.9 76.8 29 5.7 42.3
21:45 1024 30.24 853 25.19 24.7 76.5 29 5.6 42.1
21:50 1024 30.24 853 25.19 24.7 76.4 29 5.8 42.4
21:55 1024 30.24 853 25.19 24.5 76.2 29 5.7 42.3
22:00 1024 30.24 853 25.19 24.5 76.1 29 5.8 42.4
22:05 1024 30.24 853 25.19 24.4 76 29 5.7 42.3
22:10 1024 30.24 853 25.19 24.3 75.8 30 6.1 43
22:15 1024 30.24 853 25.19 23.8 74.9 31 5.9 42.7
22:20 1024 30.24 853 25.19 23.8 74.8 31 5.7 42.3
22:25 1024 30.24 853 25.19 23.8 74.9 30 5.6 42.1
22:30 1024 30.24 853 25.19 23.6 74.6 31 5.8 42.4
22:35 1024 30.24 853 25.19 23.3 74 32 5.8 42.4
22:40 1024 30.24 853 25.19 23.2 73.8 32 5.7 42.3
22:45 1024 30.24 853 25.19 23.2 73.8 32 5.6 42.2
22:50 1024 30.24 853 25.19 23.3 73.9 32 5.8 42.5
22:55 1024 30.24 853 25.19 23.3 73.9 32 5.8 42.4
23:00 1024 30.24 853 25.19 23.3 74 32 5.8 42.4
23:05 1024 30.24 853 25.19 23.3 73.9 32 6 42.8
23:10 1024 30.24 853 25.19 23.1 73.5 33 5.9 42.7
23:15 1024 30.24 853 25.19 22.9 73.3 36 7.3 45.2
23:20 1024 30.24 853 25.19 22 71.6 37 7 44.5
23:25 1024 30.24 853 25.19 21.9 71.5 36 6.5 43.7
23:30 1024 30.24 853 25.19 22.3 72.1 36 6.7 44
23:35 1024 30.24 853 25.19 22.1 71.7 36 6.4 43.5
23:40 1024 30.24 853 25.19 22.1 71.8 36 6.3 43.4
23:45 1024 30.24 853 25.19 22.2 71.9 34 6 42.7
23:50 1024 30.24 853 25.19 22.3 72.2 35 6.3 43.3
23:55 1024 30.24 853 25.19 22.1 71.7 36 6.5 43.7
24:00 1024 30.24 853 25.19 21.6 70.9 37 6.5 43.8